Weather History for KPBF - May, 2013

Change the Weather History Date:

Sunday, May 19, 2013

  Actual Average Record
Temperature  
Mean Temperature 79 °F 72 °F  
Max Temperature 88 °F 83 °F 95 °F (1998)
Min Temperature 70 °F 62 °F 45 °F (1904)
Degree Days  
Heating Degree Days 0 0  
Month to date heating degree days 61 15  
Since 1 July heating degree days 2957 2879  
Cooling Degree Days 14 8  
Month to date cooling degree days 72 108  
Year to date cooling degree days 135 195  
Growing Degree Days 28 (Base 50)    
Moisture  
Dew Point 69 °F    
Average Humidity 76    
Maximum Humidity 97    
Minimum Humidity 55    
Precipitation  
Precipitation 0.00 in 0.16 in 2.29 in (2000)
Month to date precipitation 4.77 3.18  
Year to date precipitation 25.04 21.33  
Snow  
Snow 0.00 in 0.00 in - ()
Month to date snowfall 0.0 0.0  
Since 1 July snowfall 2.1 3.1  
Snow Depth 0.00 in    
Sea Level Pressure  
Sea Level Pressure 29.89 in    
Wind  
Wind Speed 10 mph (South)    
Max Wind Speed 18 mph    
Max Gust Speed 23 mph    
Visibility 10 miles    
Events      
T = Trace of Precipitation, MM = Missing Value Source: NWS Daily Summary

Daily Weather History Graph

Daily Weather History Graph

Search for Another Location

Airport or City:

Trip Planner

Search our weather history database for the weather conditions in past years. The results will help you decide how hot, cold, wet, or windy it might be!

Date:

Astronomy

May. 19, 2013 Rise Set
Actual Time 6:03 AM CDT 8:05 PM CDT
Civil Twilight 5:35 AM CDT 8:33 PM CDT
Nautical Twilight 5:00 AM CDT 9:08 PM CDT
Astronomical Twilight 4:24 AM CDT 9:44 PM CDT
Moon 2:25 PM CDT (5/19) 2:10 AM CDT (5/19)
Length of Visible Light 14h 58m
Length of Day
14h 02m
Waxing Gibbous, 65% of the Moon is Illuminated
May 19
Waxing Gibbous
May 24
Full
May 31
Last Quarter
Jun 8
New
Jun 16
First Quarter

Hourly Weather History & Observations

Time (CDT) Temp. Heat Index Dew Point Humidity Pressure Visibility Wind Dir Wind Speed Gust Speed Precip Events Conditions
12:53 AM 73.9 °F - 70.0 °F 87% 29.88 in 10.0 mi South 5.8 mph - N/A   Clear
1:53 AM 73.9 °F - 70.0 °F 87% 29.89 in 10.0 mi SSW 6.9 mph - N/A   Clear
2:53 AM 73.0 °F - 69.1 °F 87% 29.89 in 10.0 mi South 6.9 mph - N/A   Clear
3:53 AM 72.0 °F - 69.1 °F 91% 29.90 in 10.0 mi South 5.8 mph - N/A   Clear
4:53 AM 71.1 °F - 69.1 °F 93% 29.90 in 10.0 mi SSE 5.8 mph - N/A   Clear
5:53 AM 70.0 °F - 68.0 °F 93% 29.90 in 8.0 mi SSE 5.8 mph - N/A   Clear
6:53 AM 69.8 °F - 68.0 °F 94% 29.93 in 7.0 mi SSW 6.9 mph - N/A   Clear
7:53 AM 73.0 °F - 69.1 °F 87% 29.93 in 10.0 mi South 8.1 mph - N/A   Clear
8:34 AM 73.4 °F - 68.0 °F 83% 29.95 in 10.0 mi SSW 16.1 mph 23.0 mph N/A   Mostly Cloudy
8:53 AM 73.9 °F - 68.0 °F 82% 29.95 in 10.0 mi SSW 10.4 mph - N/A   Mostly Cloudy
9:07 AM 73.4 °F - 66.2 °F 78% 29.96 in 10.0 mi South 15.0 mph - N/A   Partly Cloudy
9:53 AM 75.9 °F - 66.9 °F 74% 29.94 in 10.0 mi South 13.8 mph - N/A   Partly Cloudy
10:53 AM 78.1 °F - 68.0 °F 71% 29.94 in 10.0 mi South 8.1 mph - N/A   Clear
11:53 AM 82.9 °F 85.8 °F 68.0 °F 60% 29.92 in 10.0 mi South 12.7 mph - N/A   Clear
12:53 PM 84.9 °F 88.8 °F 69.1 °F 59% 29.90 in 10.0 mi South 11.5 mph - N/A   Clear
1:53 PM 86.0 °F 90.4 °F 69.8 °F 58% 29.89 in 10.0 mi South 13.8 mph - N/A   Partly Cloudy
2:53 PM 87.8 °F 92.6 °F 69.8 °F 55% 29.88 in 10.0 mi South 16.1 mph - N/A   Scattered Clouds
3:53 PM 87.1 °F 92.8 °F 71.1 °F 59% 29.86 in 10.0 mi South 13.8 mph 21.9 mph N/A   Partly Cloudy
4:53 PM 87.1 °F 92.0 °F 70.0 °F 57% 29.84 in 10.0 mi South 16.1 mph - N/A   Partly Cloudy
5:53 PM 86.0 °F 90.1 °F 69.1 °F 57% 29.83 in 10.0 mi South 11.5 mph - N/A   Clear
6:53 PM 84.0 °F 87.8 °F 69.1 °F 61% 29.82 in 10.0 mi South 11.5 mph - N/A   Clear
7:53 PM 80.1 °F 83.2 °F 70.0 °F 71% 29.83 in 10.0 mi SSE 9.2 mph - N/A   Clear
8:53 PM 78.1 °F - 70.0 °F 76% 29.84 in 10.0 mi SSE 10.4 mph - N/A   Clear
9:53 PM 77.0 °F - 70.0 °F 79% 29.85 in 10.0 mi SSE 10.4 mph - N/A   Clear
10:53 PM 75.9 °F - 70.0 °F 82% 29.86 in 10.0 mi SSE 10.4 mph - N/A   Clear
11:53 PM 75.9 °F - 69.1 °F 79% 29.87 in 10.0 mi South 11.5 mph - N/A   Clear